This is the latest recevied weather packets stored in our database for station/object KF7MJQ-10. If no packets are shown the sender has not sent any weather packets the latest 10 day(s).
| Time | Temp. | Humidity | Pressure | Rain* | Wind** | Luminosity | Snow |
|---|---|---|---|---|---|---|---|
| 1777865142 | 15.56° C | 1% | 1008.3 hPa | 0 mm | - | - | - |
| 1777864237 | 16.67° C | 1% | 1008.3 hPa | 0 mm | - | - | - |
| 1777862110 | 17.78° C | 35% | 1008.3 hPa | 0 mm | - | - | - |
| 1777861851 | 17.78° C | 39% | 1008.3 hPa | 0 mm | - | - | - |
| 1777860952 | 17.78° C | 51% | 1008.3 hPa | 0 mm | - | - | - |
| 1777860028 | 17.78° C | 57% | 1008.4 hPa | 0 mm | - | - | - |
| 1777859428 | 18.33° C | 60% | 1008.4 hPa | 0 mm | - | - | - |
| 1777857907 | 18.33° C | 62% | 1008.7 hPa | 0 mm | - | - | - |
| 1777857306 | 18.33° C | 62% | 1008.7 hPa | 0 mm | - | - | - |
| 1777855846 | 18.89° C | 60% | 1009 hPa | 0 mm | - | - | - |
| 1777854622 | 19.44° C | 58% | 1009.2 hPa | 0 mm | - | - | - |
| 1777853721 | 19.44° C | 59% | 1009.3 hPa | 0 mm | - | - | - |
| 1777850440 | 19.44° C | 61% | 1009.8 hPa | 0 mm | - | - | - |
| 1777849540 | 20° C | 61% | 1010 hPa | 0 mm | - | - | - |
| 1777848315 | 20.56° C | 58% | 1010.2 hPa | 0 mm | - | - | - |
| 1777848015 | 20.56° C | 59% | 1010.3 hPa | 0 mm | - | - | - |
| 1777847459 | 20.56° C | 58% | 1010.4 hPa | 0 mm | - | - | - |
| 1777846556 | 21.11° C | 58% | 1010.5 hPa | 0 mm | - | - | - |
| 1777845032 | 21.67° C | 56% | 1010.7 hPa | 0 mm | - | - | - |
| 1777844128 | 22.78° C | 54% | 1010.8 hPa | 0 mm | - | - | - |
| 1777843207 | 23.33° C | 51% | 1010.8 hPa | 0 mm | - | - | - |
| 1777842062 | 23.33° C | 52% | 1010.8 hPa | 0 mm | - | - | - |
| 1777839615 | 23.89° C | 52% | 1011.2 hPa | 0 mm | - | - | - |
| 1777837848 | 23.33° C | 55% | 1011.5 hPa | 0 mm | - | - | - |
| 1777837550 | 23.89° C | 53% | 1011.5 hPa | 0 mm | - | - | - |
* Rain latest hour (hover to see other rain measurements)
** Current wind speed in m/s (hover to see current wind gust speed)